Regional Weather Roundup
Issued by NWS

Home | Current Version | Previous Version | Text Only | Print | Product List | Glossary Off
Versions: 1 2 3 4 5 6 7 8 9 10 11 12 13 14 15 16 17 18 19 20 21 22 23 24 25 26 27 28 29 30 31 32 33 34 35 36 37 38 39 40 41 42 43 44 45 46 47 48 49 50

000
ASUS43 KIND 200409
RWRIN

WEATHER ROUNDUP FOR INDIANA
NATIONAL WEATHER SERVICE INDIANAPOLIS IN
1100 PM EST FRI JAN 19 2018

NOTE: "FAIR" INDICATES FEW OR NO CLOUDS BELOW 12,000 FEET WITH NO
SIGNIFICANT WEATHER AND/OR OBSTRUCTIONS TO VISIBILITY.

* - STATION DOES NOT REPORT WEATHER SUCH AS PRECIPITATION OR FOG.

+ - STATION NOT QUALITY CONTROLLED BY THE NATIONAL WEATHER SERVICE.
    USE DATA WITH CAUTION...ESPECIALLY DEWPOINT AND RELATIVE
    HUMIDITY OBSERVATIONS.

INZ001>003-010>013-019-020-200500-
NORTHWEST INDIANA

CITY           SKY/WX    TMP DP  RH WIND       PRES   REMARKS
GARY /AIRPORT/ MOCLDY    39  27  60 SW14      29.79R WCI  31
KNOX *+        FAIR      34  27  75 SW18      29.83S WCI  23
LA PORTE +     FAIR      34  26  71 SW17      29.81R WCI  23
MICHIGAN CITY+ FAIR      36  27  69 S16G30    29.80R WCI  26
MONTICELLO +   FAIR      34  23  64 SW16G25   29.87R WCI  23
RENSSELAER +   FAIR      34  25  69 S20G25    29.86R WCI  22
VALPARAISO     FAIR      36  26  67 SW22G28   29.81S WCI  25

$$

LMZ046-743>745-200500-
SOUTHERN LAKE MICHIGAN

STATION/POSITION TIME  TEMP    WIND        PRES    WAVE
                       AIR SEA DIR/SP/G            HT
                 (UTC) (F)     (DEG/KT/KT) (MB)    (FT)
BURNS HARBOR     0340   37     200/ 22/ 33 1008.8R
MICHIGAN CITY    0340   37     190/ 20/ 23   N/A

$$

INZ004-005-014>016-021>024-200500-
NORTH CENTRAL INDIANA

CITY           SKY/WX    TMP DP  RH WIND       PRES   REMARKS
GOSHEN         FAIR      33  24  69 SW22G32   29.81F WCI  21
LOGANSPORT +   FAIR      34  25  69 SW17      29.89S WCI  23
PERU/GRISSOM   FAIR      34  26  70 SW21G29   29.87F WCI  23
ROCHESTER +    FAIR      36  27  69 SW13G18   29.87S WCI  27
SOUTH BEND     FAIR      34  24  67 SW21G32   29.80R WCI  22
WARSAW +       FAIR      34  23  64 SW9G17    29.84F WCI  26

$$

INZ006>009-017-018-025>027-200500-
NORTHEAST INDIANA

CITY           SKY/WX    TMP DP  RH WIND       PRES   REMARKS
AUBURN +       FAIR     N/A N/A N/A SW12G18   29.85R
FORT WAYNE     MOCLDY    34  26  72 SW17      29.87F WCI  23
HUNTINGTON +   FAIR      34  24  65 SW14G20   29.88F WCI  25
KENDALLVILLE + FAIR      34  24  67 SW22G28   29.82F WCI  22

$$

INZ028-029-035-036-043>045-051>053-200500-
WEST CENTRAL INDIANA

CITY           SKY/WX    TMP DP  RH WIND       PRES   REMARKS
CRAWFORDSVL +  FAIR      31  23  70 MISG      29.92F
GREENCASTLE +  FAIR      34  21  60 SW7       29.96S WCI  28
LAFAYETTE      FAIR      34  23  64 SW14G25   29.90F WCI  25
TERRE HAUTE    FAIR      34  20  56 S15       29.98R WCI  24

$$

INZ030>032-037>040-046>048-054>057-064-065-200500-
CENTRAL INDIANA

CITY           SKY/WX    TMP DP  RH WIND       PRES   REMARKS
FRANKFORT +    FAIR      36  26  67 SW20      29.92F WCI  25
GREENWOOD *+   FAIR      37  23  56 SW10      29.97S WCI  30
INDIANAPOLIS   MOCLDY    36  23  59 SW17      29.96S WCI  26
-EAGLE CREEK   FAIR      37  22  54 SW15G23   29.95R WCI  28
MARION +       FAIR      33  25  72 SW15G21   29.92S WCI  23
MT COMFORT *+  FAIR      34  27  75 SW13G20   29.96R WCI  25
SHELBYVILLE    FAIR      32  21  64 S14       29.97F WCI  22
ZIONSVILLE +   FAIR      34  22  62 SW17G25   29.94R WCI  23

$$

INZ033-034-041-042-049-050-058-059-200500-
EAST CENTRAL INDIANA

CITY           SKY/WX    TMP DP  RH WIND       PRES   REMARKS
MUNCIE         FAIR      36  22  56 SW16G25   29.91R WCI  26
RICHMOND +     FAIR      32  23  69 SW15      29.97S WCI  22

$$

INZ060-061-067>069-081>083-085>088-200500-
SOUTHWEST INDIANA

CITY           SKY/WX    TMP DP  RH WIND       PRES   REMARKS
EVANSVILLE     FAIR      37  21  52 S12       30.06R WCI  29
HUNTINGBURG +  FAIR      36  21  54 S13       30.06S WCI  27
WASHINGTON +   FAIR      35  18  49 S12       30.02R WCI  27

$$

INZ062-063-066-070>080-084-089>092-200500-
SOUTH CENTRAL AND SOUTHEAST INDIANA

CITY           SKY/WX    TMP DP  RH WIND       PRES   REMARKS
BATESVILLE *+    N/A    N/A N/A N/A MISG        N/A
BLOOMINGTON    FAIR      38  20  48 SW16G24   29.99F WCI  29
FRENCH LICK *+ FAIR      37  16  41 SW9G20    30.04S WCI  31
MADISON *+     FAIR      32  21  64 S10       30.06F WCI  24
NORTH VERNON + FAIR      32  21  64 S12       30.02F WCI  23

$$




USA.gov is the U.S. government's official web portal to all federal, state and local government web resources and services.